Back to catalog

STARLINK-34524

AliveCommunicationsVLEO
NORAD 64431·PAYLOAD·🇺🇸 United States

Launched Jun 17, 2025 from Vandenberg Space Force Base

Loading…

Next Passes (next 24 hours)

TLE

FreshSource: CelesTrak SupGP

Epoch: Sep 14, 2026, 20:42 UTC

1 64431C 25129V   26257.86298611 -.00024170  00000+0 -81989-3 0  2570
2 64431  69.9994 315.7568 0003299 271.1393 208.3048 15.30409097    14

Track STARLINK-34524 in real time with AllMySat

Download on the App Store